Location: Recife
(8.0585°S, 34.8848°W)
Time: 12:48:02
(UTC-03:00)

Vanguard 1 - Pass Details

Date: 19 April 2026
Orbit: 654 x 3817 km, 34.3° (Epoch: 11 May)

Event Time Altitude Azimuth Distance (km) Brightness Sun altitude
Rises 22:32:53 0° 293° (WNW) 7,411 14.7 -78.2°
Reaches altitude 10° 22:43:11 10° 316° (NW) 6,809 14.3 -80.6°
Maximum altitude 22:52:17 13° 340° (NNW) 6,613 14.2 -82.7°
Drops below altitude 10° 23:01:24 10° 4° (N) 6,737 14.3 -84.6°
Sets 23:11:43 0° 29° (NNE) 7,257 14.5 -86.2°
